Flag for Austria Weather past 2 weeks in Stockerau, Lower Austria, Austria

52 °F

Partly sunny.

Feels Like: 45 °F
Forecast: 51 / 54 °F
Wind: 25 mph from West

Location: Tulln Airport

Current Time: Nov 30, 2015 at 1:41:34 PM

Latest Report: Nov 30, 2015 at 12:50 PM

Visibility: 25 mi

Pressure: 30.07 "Hg

Humidity: 72%

Dew point: 43 °F

Location of StockerauLocation

Historic Weather in Stockerau — Graph


Stockerau temperature yesterday

Maximum temperature yesterday: 46 °F (at 10:50 AM)
Minimum temperature yesterday: 36 °F (at 4:50 AM)
Average temperature yesterday: 43 °F

Past Weeks' High & Low Weather Summary

High66 °F (Nov 18, 11:50 AM)100% (Nov 20, 1:50 PM)30.33 "Hg (Nov 20, 1:50 PM)
Low23 °F (Nov 25, 4:50 AM)43% (Nov 18, 11:50 AM)29.42 "Hg (Nov 20, 7:50 PM)
Average44 °F77%29.94 "Hg
* Reported Nov 15 11:50 AM — Nov 30 11:50 AM, Stockerau, Weather by CustomWeather, © 2015

Note: Actual official high and low records may vary slightly from our data, if they occured in-between our weather recording intervals... More about our weather records


Stockerau weather history for previous 24 hours

Time TempWeatherWind HumidityBarometerVisibility
11:50 AM
Mon, Nov 30
52 °FPartly sunny.28 mph72%30.07 "Hg25 mi
11:20 AM52 °FPartly sunny.28 mph72%30.07 "Hg25 mi
10:50 AM52 °FPartly sunny.29 mph72%30.07 "Hg25 mi
10:20 AM52 °FPartly sunny.29 mph72%30.07 "Hg25 mi
9:50 AM52 °FPartly sunny.25 mph72%30.04 "Hg25 mi
9:20 AM52 °FBroken clouds.24 mph72%30.04 "Hg25 mi
8:50 AM52 °FBroken clouds.30 mph67%30.04 "Hg25 mi
7:50 AM52 °FPartly sunny.26 mph67%30.01 "Hg22 mi
6:50 AM52 °FPassing clouds.31 mph62%30.01 "Hg22 mi
5:50 AM52 °FPartly cloudy.25 mph62%30.01 "Hg16 mi
4:50 AM52 °FPassing clouds.23 mph62%30.01 "Hg16 mi
9:50 PM
Sun, Nov 29
46 °FPartly cloudy.20 mph82%30.04 "Hg12 mi
8:50 PM46 °FLight rain. Partly cloudy.20 mph82%30.04 "Hg12 mi
7:50 PM45 °FPartly cloudy.16 mph81%30.07 "Hg19 mi
6:50 PM45 °FPartly cloudy.20 mph81%30.07 "Hg19 mi
5:50 PM45 °FLight rain. Partly cloudy.22 mph81%30.07 "Hg22 mi
4:50 PM45 °FPartly cloudy.21 mph76%30.07 "Hg25 mi
3:50 PM45 °FPartly sunny.21 mph76%30.04 "Hg37 mi
2:50 PM45 °FBroken clouds.22 mph71%30.07 "Hg37 mi
1:50 PM46 °FBroken clouds.21 mph66%30.07 "Hg37 mi
Weather by CustomWeather, © 2015

See weather overviewHow to use our weather pages